EN

Hourly Weather Bolshie Osetki

Today, 20 October, Tuesday

Time Temperature Precipitation Wind Pressure Humidity
00:00 +1°C° 0 mm 5 mps 745 mmHg 80%
01:00 0°C° 0 mm 5 mps 745 mmHg 80%
02:00 0°C° 0 mm 5 mps 746 mmHg 81%
03:00 0°C° 0 mm 5 mps 746 mmHg 81%
04:00 0°C° 0 mm 5 mps 746 mmHg 81%
05:00 +1°C° 0 mm 5 mps 746 mmHg 81%
06:00 +1°C° 0 mm 5 mps 746 mmHg 83%
07:00 +1°C° 0 mm 5 mps 747 mmHg 84%
08:00 +1°C° 0 mm 5 mps 748 mmHg 85%
09:00 +2°C° 0 mm 5 mps 748 mmHg 79%
10:00 +2°C° 0 mm 5 mps 749 mmHg 72%
11:00 +3°C° 0 mm 5 mps 749 mmHg 66%
12:00 +3°C° 0 mm 5 mps 750 mmHg 65%
13:00 +5°C° 0 mm 5 mps 750 mmHg 64%
14:00 +5°C° 0 mm 4 mps 751 mmHg 63%
15:00 +4°C° 0 mm 3 mps 751 mmHg 68%
16:00 +4°C° 0 mm 3 mps 751 mmHg 73%
17:00 +4°C° 0 mm 2 mps 752 mmHg 78%
18:00 +4°C° 0 mm 2 mps 752 mmHg 82%
19:00 +3°C° 0 mm 2 mps 752 mmHg 86%
20:00 +3°C° 0 mm 2 mps 752 mmHg 91%
21:00 +3°C° 0 mm 2 mps 752 mmHg 90%
22:00 +4°C° 0 mm 1 mps 752 mmHg 90%
23:00 +4°C° 0 mm 1 mps 752 mmHg 90%

Tomorrow, 21 October, Wednesday

Time Temperature Precipitation Wind Pressure Humidity
00:00 +4°C° 0 mm 1 mps 752 mmHg 88%
01:00 +4°C° 0 mm 1 mps 752 mmHg 87%
02:00 +4°C° 0 mm 1 mps 751 mmHg 85%
03:00 +3°C° 0 mm 2 mps 751 mmHg 84%
04:00 +3°C° 0 mm 2 mps 750 mmHg 84%
05:00 +3°C° 0 mm 2 mps 750 mmHg 84%
06:00 +3°C° 0.8 mm 3 mps 749 mmHg 87%
07:00 +3°C° 0.8 mm 3 mps 749 mmHg 90%
08:00 +3°C° 0.8 mm 3 mps 748 mmHg 93%
09:00 +3°C° 1.2 mm 3 mps 748 mmHg 94%
10:00 +3°C° 1.2 mm 3 mps 747 mmHg 94%
11:00 +4°C° 1.2 mm 3 mps 747 mmHg 94%
12:00 +4°C° 0.1 mm 3 mps 747 mmHg 94%
13:00 +5°C° 0.1 mm 2 mps 747 mmHg 93%
14:00 +6°C° 0.1 mm 2 mps 746 mmHg 93%
15:00 +6°C° 0 mm 2 mps 746 mmHg 94%
16:00 +7°C° 0 mm 1 mps 746 mmHg 95%
17:00 +7°C° 0 mm 1 mps 746 mmHg 96%
18:00 +6°C° 0 mm 1 mps 746 mmHg 96%
19:00 +6°C° 0 mm 1 mps 747 mmHg 97%
20:00 +5°C° 0 mm 1 mps 747 mmHg 97%
21:00 +5°C° 0 mm 1 mps 747 mmHg 97%
22:00 +5°C° 0 mm 1 mps 747 mmHg 97%
23:00 +5°C° 0 mm 1 mps 747 mmHg 97%

Day after tomorrow, 22 October, Thursday

Time Temperature Precipitation Wind Pressure Humidity
00:00 +5°C° 0 mm 2 mps 747 mmHg 97%
01:00 +5°C° 0 mm 2 mps 747 mmHg 97%
02:00 +5°C° 0 mm 2 mps 747 mmHg 97%
03:00 +5°C° 0.2 mm 3 mps 746 mmHg 97%
04:00 +5°C° 0.2 mm 3 mps 745 mmHg 97%
05:00 +5°C° 0.2 mm 4 mps 745 mmHg 97%
06:00 +6°C° 1.2 mm 4 mps 744 mmHg 96%
07:00 +6°C° 1.2 mm 4 mps 744 mmHg 96%
08:00 +7°C° 1.2 mm 4 mps 743 mmHg 96%
09:00 +7°C° 0.2 mm 4 mps 743 mmHg 92%
10:00 +8°C° 0.2 mm 4 mps 743 mmHg 89%
11:00 +10°C° 0.2 mm 4 mps 743 mmHg 85%
12:00 +10°C° 0 mm 4 mps 743 mmHg 85%
13:00 +11°C° 0 mm 4 mps 743 mmHg 84%
14:00 +12°C° 0 mm 4 mps 743 mmHg 83%
15:00 +12°C° 0 mm 5 mps 743 mmHg 84%
16:00 +12°C° 0 mm 5 mps 743 mmHg 85%
17:00 +12°C° 0 mm 5 mps 743 mmHg 85%
18:00 +10°C° 0 mm 5 mps 743 mmHg 86%
19:00 +11°C° 0 mm 4 mps 743 mmHg 88%
20:00 +11°C° 0 mm 4 mps 743 mmHg 89%
21:00 +11°C° 0 mm 4 mps 743 mmHg 89%
22:00 +11°C° 0 mm 4 mps 743 mmHg 90%
23:00 +11°C° 0 mm 3 mps 743 mmHg 90%

23 October, Friday

Time Temperature Precipitation Wind Pressure Humidity
00:00 +11°C° 0 mm 3 mps 743 mmHg 92%
01:00 +10°C° 0 mm 3 mps 743 mmHg 94%
02:00 +10°C° 0 mm 3 mps 743 mmHg 95%
03:00 +10°C° 0 mm 4 mps 742 mmHg 95%
04:00 +10°C° 0 mm 4 mps 742 mmHg 95%
05:00 +10°C° 0 mm 4 mps 741 mmHg 94%
06:00 +10°C° 0 mm 4 mps 741 mmHg 92%
07:00 +11°C° 0 mm 4 mps 740 mmHg 90%
08:00 +11°C° 0 mm 4 mps 740 mmHg 88%
09:00 +12°C° 0 mm 4 mps 740 mmHg 86%
10:00 +12°C° 0 mm 4 mps 740 mmHg 84%
11:00 +13°C° 0 mm 4 mps 740 mmHg 82%
12:00 +12°C° 0.5 mm 5 mps 740 mmHg 84%
13:00 +12°C° 0.5 mm 5 mps 739 mmHg 87%
14:00 +10°C° 0.5 mm 5 mps 739 mmHg 90%
15:00 +12°C° 0.1 mm 5 mps 739 mmHg 90%
16:00 +12°C° 0.1 mm 4 mps 739 mmHg 90%
17:00 +12°C° 0.1 mm 4 mps 738 mmHg 90%
18:00 +12°C° 0.2 mm 4 mps 738 mmHg 90%
19:00 +12°C° 0.2 mm 4 mps 738 mmHg 90%
20:00 +12°C° 0.2 mm 4 mps 738 mmHg 90%
21:00 +12°C° 0.2 mm 4 mps 738 mmHg 89%
22:00 +11°C° 0.2 mm 4 mps 738 mmHg 89%
23:00 +11°C° 0.2 mm 4 mps 738 mmHg 89%

24 October, Saturday

Time Temperature Precipitation Wind Pressure Humidity
00:00 +10°C° 0 mm 5 mps 738 mmHg 88%
01:00 +10°C° 0 mm 5 mps 738 mmHg 87%
02:00 +10°C° 0 mm 5 mps 739 mmHg 86%
03:00 +10°C° 0 mm 4 mps 739 mmHg 89%
04:00 +9°C° 0 mm 3 mps 739 mmHg 91%
05:00 +9°C° 0 mm 2 mps 739 mmHg 94%
06:00 +9°C° 0 mm 2 mps 739 mmHg 95%
07:00 +8°C° 0 mm 2 mps 740 mmHg 95%
08:00 +8°C° 0 mm 3 mps 740 mmHg 96%
09:00 +9°C° 0.1 mm 3 mps 740 mmHg 93%
10:00 +10°C° 0.1 mm 3 mps 740 mmHg 90%
11:00 +10°C° 0.1 mm 3 mps 740 mmHg 87%
12:00 +10°C° 0.3 mm 3 mps 740 mmHg 87%
13:00 +10°C° 0.3 mm 3 mps 740 mmHg 86%
14:00 +10°C° 0.3 mm 4 mps 740 mmHg 85%
15:00 +10°C° 0.1 mm 3 mps 739 mmHg 85%
16:00 +9°C° 0.1 mm 3 mps 739 mmHg 85%
17:00 +9°C° 0.1 mm 3 mps 739 mmHg 86%
18:00 +8°C° 0.1 mm 3 mps 739 mmHg 85%
19:00 +8°C° 0.1 mm 3 mps 738 mmHg 85%
20:00 +8°C° 0.1 mm 3 mps 738 mmHg 84%
21:00 +8°C° 0.1 mm 2 mps 738 mmHg 86%
22:00 +7°C° 0.1 mm 2 mps 738 mmHg 89%
23:00 +8°C° 0.1 mm 1 mps 738 mmHg 91%

25 October, Sunday

Time Temperature Precipitation Wind Pressure Humidity
00:00 +7°C° 0.1 mm 2 mps 738 mmHg 92%
01:00 +7°C° 0.1 mm 2 mps 738 mmHg 92%
02:00 +7°C° 0.1 mm 2 mps 738 mmHg 92%
03:00 +7°C° 0.2 mm 2 mps 738 mmHg 92%
04:00 +7°C° 0.2 mm 3 mps 738 mmHg 92%
05:00 +7°C° 0.2 mm 3 mps 739 mmHg 92%
06:00 +7°C° 0.4 mm 3 mps 739 mmHg 92%
07:00 +7°C° 0.4 mm 3 mps 740 mmHg 92%
08:00 +8°C° 0.4 mm 3 mps 740 mmHg 93%
09:00 +7°C° 0.1 mm 4 mps 741 mmHg 88%
10:00 +7°C° 0.1 mm 5 mps 742 mmHg 84%
11:00 +7°C° 0.1 mm 5 mps 743 mmHg 79%
12:00 +7°C° 0 mm 5 mps 743 mmHg 76%
13:00 +8°C° 0 mm 5 mps 744 mmHg 72%
14:00 +8°C° 0 mm 4 mps 744 mmHg 69%
15:00 +7°C° 0 mm 4 mps 745 mmHg 73%
16:00 +7°C° 0 mm 3 mps 745 mmHg 76%
17:00 +5°C° 0 mm 3 mps 746 mmHg 80%
18:00 +5°C° 0 mm 3 mps 746 mmHg 81%
19:00 +5°C° 0 mm 3 mps 747 mmHg 83%
20:00 +4°C° 0 mm 3 mps 747 mmHg 84%
21:00 +5°C° 0 mm 2 mps 747 mmHg 86%
22:00 +4°C° 0 mm 2 mps 748 mmHg 89%
23:00 +4°C° 0 mm 2 mps 748 mmHg 92%

26 October, Monday

Time Temperature Precipitation Wind Pressure Humidity
00:00 +4°C° 0.1 mm 2 mps 748 mmHg 91%
01:00 +4°C° 0.1 mm 2 mps 748 mmHg 90%
02:00 +5°C° 0.1 mm 2 mps 748 mmHg 89%
03:00 +5°C° 0.4 mm 2 mps 748 mmHg 91%
04:00 +5°C° 0.4 mm 2 mps 748 mmHg 93%
05:00 +6°C° 0.4 mm 2 mps 747 mmHg 95%
06:00 +5°C° 0.4 mm 3 mps 748 mmHg 95%
07:00 +6°C° 0.4 mm 4 mps 748 mmHg 94%
08:00 +7°C° 0.4 mm 4 mps 748 mmHg 94%
09:00 +7°C° 0.1 mm 4 mps 748 mmHg 92%
10:00 +7°C° 0.1 mm 4 mps 748 mmHg 90%
11:00 +8°C° 0.1 mm 4 mps 748 mmHg 88%
12:00 +8°C° 0.1 mm 4 mps 749 mmHg 89%
13:00 +9°C° 0.1 mm 3 mps 749 mmHg 90%
14:00 +9°C° 0.1 mm 3 mps 749 mmHg 91%
15:00 +8°C° 0 mm 3 mps 750 mmHg 92%
16:00 +8°C° 0 mm 2 mps 750 mmHg 93%
17:00 +8°C° 0 mm 2 mps 750 mmHg 94%
18:00 +8°C° 0 mm 2 mps 751 mmHg 94%
19:00 +9°C° 0 mm 1 mps 751 mmHg 93%
20:00 +8°C° 0 mm 1 mps 752 mmHg 92%
21:00 +8°C° 0 mm 1 mps 752 mmHg 91%
22:00 +6°C° 0 mm 2 mps 752 mmHg 90%
23:00 +5°C° 0 mm 2 mps 753 mmHg 89%
Show more